Location: *
(48.8780°N, 19.2358°E)
Time: 03:03:14
(UTC+00:00)

Cosmos 1339 Rocket - Pass Details

Date: 18 October 2019
Orbit: 942 x 1005 km, 82.9° (Epoch: 13 November)

Event Time Altitude Azimuth Distance (km) Brightness Sun altitude
Rises 17:18:41 0° 183° (S) 3,595 7.5 -15.6°
Reaches altitude 10° 17:21:08 10° 183° (S) 2,657 6.8 -16.0°
Maximum altitude 17:27:12 81° 97° (E) 968 4.4 -17.0°
Drops below altitude 10° 17:33:23 10° 11° (N) 2,704 6.8 -18.0°
Sets 17:35:54 0° 11° (N) 3,663 7.5 -18.4°
